Voltar ao catálogo

STARLINK-35506

AtivoComunicaçõesVLEO
NORAD 66324·PAYLOAD·🇺🇸 United States

Lançado Nov 6, 2025 de Cape Canaveral Space Force Station

Loading…

Próximas Passagens (próximas 24 horas)

TLE

AtualizadoSource: CelesTrak SupGP

Época: Sep 15, 2026, 03:22 UTC

1 66324C 25253F   26258.14076389 -.00024449  00000+0 -88574-3 0  2586
2 66324  43.0020 222.2535 0000720 259.1166  57.8616 15.27583571    10

Acompanhe STARLINK-35506 em tempo real com AllMySat

Download on the App Store